Latest Weather Observations for Adelaide Airport

IDS60801

Issued at 6:35 pm CDT Friday 24 October 2014 (issued every 30 minutes, with the page automatically refreshed every 10 minutes)

About weather observations | Map of weather stations | Latest weather observations for SA | Other Formats
Station Details ID: 023034 Name: ADELAIDE AIRPORT Lat: -34.95 Lon: 138.52 Height: 2.0 m
Data from the previous 72 hours. | See also: Recent months at Adelaide Airport
Date/Time
CDT
Temp
°C
App
Temp
°C
Dew
Point
Rel
Hum
%
Delta-T
°C
Wind Press
QNH
hPa
Press
MSL
hPa
Rain
since 9 am
mm
Dir
 
Spd
km/h
Gust
km/h
Spd
kts
Gust
kts
24/06:30pm 23.3 21.1 10.9 45 6.9 SSW 13 17 7 9 1012.6 - 0.0
24/06:00pm 23.0 19.5 13.3 54 5.6 SW 24 33 13 18 1012.8 1012.8 0.0
24/05:30pm 24.4 19.7 12.1 46 7.0 SSW 28 37 15 20 1012.5 - 0.0
24/05:00pm 25.7 19.7 10.2 37 8.6 SW 32 37 17 20 1012.2 - 0.0
24/04:30pm 26.4 21.6 10.3 36 9.0 SW 26 33 14 18 1012.2 - 0.0
24/04:00pm 28.5 23.9 1.5 17 13.1 WSW 15 22 8 12 1012.2 - 0.0
24/03:30pm 29.1 25.5 0.5 15 13.7 S 9 15 5 8 1012.4 - 0.0
24/03:00pm 28.6 24.5 -0.3 15 13.6 SSW 11 17 6 9 1012.8 1012.8 0.0
24/02:30pm 29.1 24.3 0.5 15 13.7 WSW 15 20 8 11 1013.2 - 0.0
24/02:00pm 28.4 24.6 1.7 18 13.0 SW 11 17 6 9 1013.4 - 0.0
24/01:30pm 28.0 24.9 7.2 27 11.1 W 13 19 7 10 1013.8 - 0.0
24/01:00pm 27.3 24.8 8.3 30 10.3 W 11 17 6 9 1014.0 - 0.0
24/12:30pm 26.8 24.3 9.6 34 9.5 W 13 19 7 10 1014.1 - 0.0
24/12:00pm 26.2 23.7 8.4 32 9.6 WNW 11 17 6 9 1014.4 1014.4 0.0
24/11:30am 26.0 24.4 8.6 33 9.4 NW 7 13 4 7 1014.9 - 0.0
24/11:00am 25.7 24.0 9.7 36 8.8 N 9 13 5 7 1015.0 - 0.0
24/10:30am 25.2 24.4 11.6 42 7.7 NE 7 9 4 5 1015.1 - 0.0
24/10:00am 24.1 22.9 11.7 45 7.0 N 9 13 5 7 1015.1 - 0.0
24/09:30am 21.8 20.1 11.1 50 5.9 NE 11 13 6 7 1014.8 - 0.0
24/09:00am 21.4 20.2 11.5 53 5.5 NE 9 13 5 7 1014.8 1014.8 0.0
24/08:30am 20.2 19.7 11.9 59 4.6 NNE 6 9 3 5 1014.8 - 0.0
24/08:00am 18.1 18.2 12.7 70 3.0 ENE 4 9 2 5 1014.3 - 0.0
24/07:30am 15.9 16.8 12.8 82 1.7 CALM 0 0 0 0 1014.3 - 0.0
24/07:00am 14.2 13.5 12.0 87 1.2 NE 7 9 4 5 1014.0 - 0.0
24/06:30am 14.5 14.0 12.5 88 1.1 N 7 11 4 6 1013.5 - 0.0
24/06:00am 13.9 12.9 12.4 91 0.8 NNE 9 11 5 6 1013.0 1013.0 0.0
24/05:30am 14.7 13.5 12.7 88 1.1 NNE 11 13 6 7 1012.7 - 0.0
24/05:00am 14.1 12.4 12.6 91 0.8 NNE 13 15 7 8 1012.3 - 0.0
24/04:30am 13.5 12.9 12.4 93 0.6 ENE 7 9 4 5 1012.5 - 0.0
24/04:00am 13.4 12.3 12.1 92 0.7 NNE 9 9 5 5 1012.7 - 0.0
24/03:30am 14.4 12.5 12.9 91 0.8 NNW 15 15 8 8 1013.1 - 0.0
24/03:00am 13.0 11.9 11.9 93 0.6 ENE 9 13 5 7 1012.6 1012.6 0.0
24/02:30am 12.9 12.0 12.5 97 0.2 NNE 9 9 5 5 1013.6 - 0.0
24/02:00am 13.0 12.3 12.1 94 0.5 NNE 7 9 4 5 1014.1 - 0.0
24/01:30am 13.9 13.4 12.8 93 0.6 WNW 7 7 4 4 1014.5 - 0.0
24/01:00am 13.9 14.8 12.8 93 0.6 CALM 0 0 0 0 1014.8 - 0.0
24/12:30am 13.8 13.5 12.7 93 0.6 E 6 7 3 4 1015.1 - 0.0
24/12:00am 14.7 15.7 13.3 91 0.8 CALM 0 7 0 4 1015.5 1015.5 0.0
 
Date/Time
CDT
Temp
°C
App
Temp
°C
Dew
Point
Rel
Hum
%
Delta-T
°C
Wind Press
QNH
hPa
Press
MSL
hPa
Rain
since 9 am
mm
Dir
 
Spd
km/h
Gust
km/h
Spd
kts
Gust
kts
23/11:30pm 15.4 15.1 14.3 93 0.6 W 9 9 5 5 1015.8 - 0.0
23/11:00pm 15.5 15.4 13.9 90 0.9 NNW 7 11 4 6 1015.6 - 0.0
23/10:30pm 14.9 16.1 13.8 93 0.6 CALM 0 6 0 3 1015.5 - 0.0
23/10:00pm 16.2 17.6 14.4 89 1.0 CALM 0 0 0 0 1015.8 - 0.0
23/09:30pm 16.0 15.6 14.2 89 1.0 WSW 9 11 5 6 1015.6 - 0.0
23/09:00pm 16.0 15.6 14.1 88 1.1 W 9 11 5 6 1015.4 1015.4 0.0
23/08:30pm 16.4 15.9 13.9 85 1.4 W 9 9 5 5 1015.2 - 0.0
23/08:00pm 16.7 16.7 13.7 82 1.7 WSW 6 7 3 4 1014.9 - 0.0
23/07:30pm 17.4 16.4 13.3 77 2.3 SW 11 15 6 8 1015.1 - 0.0
23/07:00pm 17.8 16.3 13.2 74 2.6 SW 13 17 7 9 1015.0 - 0.0
23/06:30pm 17.9 16.4 13.1 73 2.7 SW 13 17 7 9 1014.6 - 0.0
23/06:00pm 17.7 15.9 13.3 75 2.5 SSW 15 19 8 10 1014.4 1014.4 0.0
23/05:30pm 18.5 15.0 13.4 72 2.9 SW 24 30 13 16 1014.4 - 0.0
23/05:00pm 18.5 15.5 13.6 73 2.8 SW 22 28 12 15 1014.5 - 0.0
23/04:30pm 18.3 14.4 13.3 72 2.8 SW 26 32 14 17 1014.4 - 0.0
23/04:00pm 18.9 15.6 12.8 67 3.4 SW 22 28 12 15 1014.5 - 0.0
23/03:30pm 19.2 15.8 12.6 65 3.7 SW 22 35 12 19 1014.5 - 0.0
23/03:00pm 18.5 15.5 12.6 68 3.3 SW 20 26 11 14 1014.7 1014.7 0.0
23/02:30pm 18.9 16.0 12.4 66 3.6 WSW 19 22 10 12 1015.1 - 0.0
23/02:00pm 18.7 15.0 12.6 67 3.4 WSW 24 30 13 16 1015.5 - 0.0
23/01:30pm 19.1 15.8 12.9 67 3.5 WSW 22 28 12 15 1015.8 - 0.0
23/01:00pm 20.0 17.0 12.1 60 4.4 WSW 19 22 10 12 1016.0 - 0.0
23/12:30pm 20.1 17.1 12.6 62 4.2 W 20 26 11 14 1016.3 - 0.0
23/12:00pm 19.9 17.8 12.4 62 4.2 W 15 22 8 12 1016.7 1016.7 0.0
23/11:30am 20.0 18.6 12.1 60 4.4 WNW 11 20 6 11 1017.1 - 0.0
23/11:00am 19.8 18.4 12.1 61 4.3 N 11 15 6 8 1017.1 - 0.0
23/10:30am 18.9 16.6 11.6 62 4.0 NW 15 20 8 11 1017.4 - 0.0
23/10:00am 19.0 18.4 11.7 62 4.0 NE 6 15 3 8 1017.8 - 0.0
23/09:30am 18.1 17.1 11.1 63 3.8 NNW 7 11 4 6 1017.8 - 0.0
23/09:00am 17.4 16.5 11.3 67 3.3 NNE 7 11 4 6 1017.9 1017.9 0.0
23/08:30am 17.3 16.1 11.6 69 3.1 NE 9 13 5 7 1018.0 - 0.0
23/08:00am 16.6 14.6 11.6 72 2.7 ESE 13 22 7 12 1018.1 - 0.0
23/07:30am 15.3 13.7 11.6 78 2.0 S 11 15 6 8 1018.2 - 0.0
23/07:00am 14.7 11.9 11.3 80 1.8 SSE 17 20 9 11 1018.0 - 0.0
23/06:30am 14.4 11.0 11.2 81 1.7 SSE 20 26 11 14 1017.8 - 0.0
23/06:00am 14.4 10.2 11.2 81 1.7 SSE 24 32 13 17 1017.7 1017.7 0.0
23/05:54am 14.4 10.2 11.2 81 1.7 SSE 24 32 13 17 1017.7 - 0.0
23/05:30am 14.7 11.3 11.1 79 1.9 SSE 20 28 11 15 1017.7 - 0.0
23/05:00am 14.9 11.5 11.3 79 1.9 SSE 20 28 11 15 1017.3 - 0.0
23/04:30am 15.0 11.3 11.4 79 1.9 SSE 22 30 12 16 1017.7 - 0.0
23/04:00am 14.8 11.6 11.4 80 1.8 SSE 19 28 10 15 1017.8 - 0.0
23/03:50am 14.9 10.8 11.3 79 1.9 SSE 24 33 13 18 1017.9 - 0.0
23/03:30am 14.7 10.6 11.3 80 1.8 SSE 24 33 13 18 1018.0 - 0.0
23/03:00am 14.6 11.4 11.4 81 1.7 SSE 19 28 10 15 1018.0 1018.0 0.0
23/02:30am 14.7 11.9 11.3 80 1.8 S 17 24 9 13 1018.4 - 0.0
23/02:00am 14.5 11.1 11.3 81 1.7 S 20 28 11 15 1018.6 - 0.0
23/01:30am 14.8 12.0 11.2 79 1.9 S 17 24 9 13 1018.8 - 0.0
23/01:00am 14.9 12.1 11.3 79 1.9 S 17 26 9 14 1018.8 - 0.0
23/12:30am 15.0 11.8 11.4 79 1.9 S 19 26 10 14 1018.8 - 0.0
23/12:00am 15.3 11.6 11.4 77 2.1 S 22 28 12 15 1019.0 1019.0 0.0
 
Date/Time
CDT
Temp
°C
App
Temp
°C
Dew
Point
Rel
Hum
%
Delta-T
°C
Wind Press
QNH
hPa
Press
MSL
hPa
Rain
since 9 am
mm
Dir
 
Spd
km/h
Gust
km/h
Spd
kts
Gust
kts
22/11:30pm 15.3 11.2 11.6 78 2.0 S 24 30 13 16 1019.4 - 0.0
22/11:00pm 15.5 12.2 11.6 77 2.1 S 20 28 11 15 1019.6 - 0.0
22/10:30pm 15.6 11.2 11.7 77 2.1 S 26 33 14 18 1019.6 - 0.0
22/10:00pm 15.9 12.6 11.6 75 2.3 S 20 30 11 16 1019.8 - 0.0
22/09:30pm 16.3 12.5 11.3 72 2.7 SSW 22 32 12 17 1019.6 - 0.0
22/09:00pm 16.8 14.7 11.2 69 3.0 SSW 13 15 7 8 1019.3 1019.3 0.0
22/08:30pm 17.7 13.8 10.8 64 3.7 S 22 33 12 18 1018.9 - 0.0
22/08:00pm 19.0 15.1 10.7 58 4.5 SSE 22 30 12 16 1018.3 - 0.0
22/07:30pm 20.1 15.0 10.5 54 5.2 SSE 28 35 15 19 1017.6 - 0.0
22/07:00pm 19.9 17.2 13.6 67 3.6 SSE 20 28 11 15 1017.0 - 0.0
22/06:30pm 19.3 15.9 13.7 70 3.2 SSW 24 32 13 17 1016.9 - 0.0
22/06:00pm 19.7 16.3 13.8 69 3.4 SSW 24 37 13 20 1016.5 1016.5 0.0
22/05:30pm 20.6 16.8 13.6 64 4.0 SW 26 33 14 18 1016.4 - 0.0
22/05:00pm 20.8 16.8 14.1 65 3.9 SW 28 33 15 18 1016.3 - 0.0
22/04:30pm 21.8 17.7 13.9 61 4.6 SSW 28 37 15 20 1016.0 - 0.0
22/04:00pm 21.6 16.7 14.4 63 4.2 SSW 33 41 18 22 1016.0 - 0.0
22/03:30pm 21.1 16.7 14.2 64 4.0 SSW 30 37 16 20 1016.1 - 0.0
22/03:00pm 22.4 18.7 14.0 59 4.9 SW 26 33 14 18 1016.2 1016.2 0.0
22/02:30pm 23.3 17.8 13.7 54 5.6 SSW 35 48 19 26 1016.3 - 0.0
22/02:00pm 23.2 17.9 14.2 57 5.3 SW 35 50 19 27 1016.0 - 0.0
22/01:30pm 22.8 17.8 14.1 58 5.1 SW 33 46 18 25 1016.1 - 0.0
22/01:00pm 23.3 19.5 13.7 54 5.6 SSW 26 33 14 18 1016.2 - 0.0
22/12:30pm 23.6 20.2 13.8 54 5.7 SW 24 32 13 17 1016.5 - 0.0
22/12:00pm 23.7 21.2 13.6 53 5.9 SW 19 24 10 13 1016.5 1016.5 0.0
22/11:30am 23.3 21.5 14.5 57 5.2 WSW 17 22 9 12 1016.6 - 0.0
22/11:00am 24.4 22.1 11.9 45 7.1 W 15 20 8 11 1016.5 - 0.0
22/10:30am 24.6 21.7 8.0 34 8.8 WSW 13 15 7 8 1016.5 - 0.0
22/10:00am 22.3 20.3 12.6 54 5.5 WSW 15 19 8 10 1016.5 - 0.0
22/09:30am 21.9 21.8 15.0 65 4.1 W 9 11 5 6 1016.3 - 0.0
22/09:00am 21.6 21.6 15.2 67 3.8 NW 9 13 5 7 1016.2 1016.2 0.0
22/08:30am 22.9 24.2 14.2 58 5.1 CALM 0 0 0 0 1016.1 - 0.0
22/08:00am 20.1 21.1 14.4 69 3.3 SW 2 6 1 3 1016.0 - 0.0
22/07:30am 18.7 18.3 14.0 74 2.7 WSW 9 11 5 6 1015.8 - 0.0
22/07:00am 18.2 16.9 13.6 74 2.6 SSW 13 19 7 10 1015.7 - 0.0
22/06:30am 19.6 18.2 11.0 57 4.7 NW 9 20 5 11 1015.3 - 0.0
22/06:00am 20.4 18.6 9.3 49 5.9 SSW 9 11 5 6 1015.0 1015.0 0.0
22/05:30am 18.7 16.4 7.5 48 5.7 SSE 9 11 5 6 1014.3 - 0.0
22/05:00am 18.7 17.3 7.2 47 5.8 E 4 9 2 5 1014.4 - 0.0
22/04:30am 20.5 18.5 6.4 40 7.1 SE 6 9 3 5 1014.3 - 0.0
22/04:00am 21.2 19.2 6.9 39 7.3 NE 7 11 4 6 1014.3 - 0.0
22/03:30am 18.6 17.0 8.6 52 5.2 ESE 7 15 4 8 1014.2 - 0.0
22/03:00am 21.2 19.6 8.7 44 6.6 E 7 11 4 6 1014.6 1014.6 0.0
22/02:30am 19.5 18.4 11.9 61 4.2 E 9 11 5 6 1014.9 - 0.0
22/02:00am 20.4 19.2 12.8 61 4.3 SW 11 15 6 8 1015.4 - 0.0
22/01:30am 21.9 18.1 11.3 51 5.9 SW 22 30 12 16 1015.8 - 0.0
22/01:05am 23.5 18.2 9.9 42 7.4 SSW 28 35 15 19 1015.7 - 0.0
22/01:00am 24.9 22.2 7.4 32 9.2 NE 11 15 6 8 1015.6 - 0.0
22/12:30am 25.0 21.0 4.9 27 10.1 NNE 15 17 8 9 1015.4 - 0.0
22/12:00am 25.9 22.7 5.0 26 10.6 NE 11 13 6 7 1015.8 1015.8 0.0
 
Date/Time
CDT
Temp
°C
App
Temp
°C
Dew
Point
Rel
Hum
%
Delta-T
°C
Wind Press
QNH
hPa
Press
MSL
hPa
Rain
since 9 am
mm
Dir
 
Spd
km/h
Gust
km/h
Spd
kts
Gust
kts
21/11:30pm 25.7 22.5 5.2 26 10.4 NE 11 15 6 8 1016.2 - 0.0
21/11:00pm 27.3 23.1 3.7 22 11.8 NNE 15 17 8 9 1016.5 - 0.0
21/10:30pm 30.2 25.8 0.5 15 14.3 NNE 13 20 7 11 1016.7 - 0.0
21/10:00pm 26.5 22.8 4.5 24 11.1 E 13 15 7 8 1016.7 - 0.0
21/09:30pm 27.0 22.9 4.1 23 11.5 NE 15 17 8 9 1016.5 - 0.0
21/09:00pm 27.4 25.0 5.2 24 11.4 NNE 7 7 4 4 1016.2 1016.2 0.0
21/08:30pm 27.6 23.5 6.2 25 11.2 E 17 19 9 10 1015.8 - 0.0
21/08:00pm 28.3 24.8 5.3 23 11.9 E 13 17 7 9 1015.7 - 0.0
21/07:30pm 30.0 26.0 5.0 20 13.0 E 15 17 8 9 1015.9 - 0.0
21/07:00pm 32.3 28.6 2.3 15 15.1 E 11 15 6 8 1015.8 - 0.0

Other Formats:

Comma delimited format used in spreadsheet applications
http://www.bom.gov.au/fwo/IDS60801/IDS60801.94672.axf

JavaScript Object Notation format (JSON) in row-major order
http://www.bom.gov.au/fwo/IDS60801/IDS60801.94672.json